Location: *
(41.3833°S, 177.8333°W)
Time: 02:00:34
(UTC+00:00)

Meteor 1-11 Rocket - Pass Details

Date: 01 April 2020
Orbit: 831 x 916 km, 81.2° (Epoch: 05 June)

Event Time Altitude Azimuth Distance (km) Brightness Sun altitude
Exits shadow 15:24:53 69° 72° (ENE) 965 4.0 -30.8°
Maximum altitude 15:25:03 70° 83° (E) 962 4.0 -30.8°
Drops below altitude 10° 15:30:53 10° 166° (SSE) 2,572 6.6 -29.7°
Sets 15:33:20 0° 167° (SSE) 3,505 7.3 -29.3°
